Weather History for Meadow Lake, CO

Change the Weather History Date:

Friday, September 20, 2013

  Actual Average (KCOS) Record (KCOS)
Temperature  
Mean Temperature 56 °F 59 °F  
Max Temperature 65 °F 73 °F 90 °F (1956)
Min Temperature 47 °F 46 °F 28 °F (1901)
Degree Days  
Heating Degree Days 10 6  
Month to date heating degree days 75  
Since 1 July heating degree days 106  
Cooling Degree Days 0 1  
Month to date cooling degree days 33  
Year to date cooling degree days 451  
Growing Degree Days 6 (Base 50)    
Moisture  
Dew Point 47 °F    
Average Humidity 77    
Maximum Humidity 98    
Minimum Humidity 52    
Precipitation  
Precipitation 0.00 in 0.03 in 0.67 in (1965)
Month to date precipitation 0.91  
Year to date precipitation 14.70  
Snow  
Snow 0.00 in 0.10 in 0.10 in (1965)
Month to date snowfall 0.1  
Since 1 July snowfall 0.1  
Since 1 September snowfall 0.1  
Snow Depth -    
Sea Level Pressure  
Sea Level Pressure 30.26 in    
Wind  
Wind Speed 6 mph (South)    
Max Wind Speed 12 mph    
Max Gust Speed 18 mph    
Visibility 10 miles    
Events      
T = Trace of Precipitation, MM = Missing Value Source: NWS Daily Summary

Daily Weather History Graph

Daily Weather History Graph

Search for Another Location

Airport:

Trip Planner

Search our weather history database for the weather conditions in past years. The results will help you decide how hot, cold, wet, or windy it might be!

Date:

Astronomy

Sep. 20, 2013 Rise Set
Actual Time 6:44 AM MDT 6:58 PM MDT
Civil Twilight 6:17 AM MDT 7:24 PM MDT
Nautical Twilight 5:46 AM MDT 7:55 PM MDT
Astronomical Twilight 5:14 AM MDT 8:27 PM MDT
Moon 7:34 PM MDT (9/20) 8:00 AM MDT (9/20)
Length of Visible Light 13h 06m
Length of Day
12h 13m
Full, 98% of the Moon is Illuminated
Sep 20
Full
Sep 26
Last Quarter
Oct 4
New
Oct 11
First Quarter
Oct 18
Full

Hourly Weather History & Observations

Time (MDT) Temp. Dew Point Humidity Pressure Visibility Wind Dir Wind Speed Gust Speed Precip Events Conditions
12:15 AM 51.3 °F 43.2 °F 74% 30.31 in 10.0 mi East 3.5 mph - N/A   Overcast
12:35 AM 51.3 °F 43.9 °F 76% 30.31 in 10.0 mi ENE 3.5 mph - N/A   Overcast
12:55 AM 51.1 °F 43.7 °F 76% 30.31 in 10.0 mi SE 3.5 mph - N/A   Overcast
1:15 AM 50.9 °F 43.5 °F 76% 30.31 in 10.0 mi SSE 3.5 mph - N/A   Overcast
1:35 AM 50.5 °F 43.7 °F 77% 30.32 in 10.0 mi SSE 4.6 mph - N/A   Overcast
1:55 AM 50.7 °F 43.9 °F 77% 30.31 in 10.0 mi South 6.9 mph - N/A   Overcast
2:15 AM 50.5 °F 43.9 °F 78% 30.31 in 10.0 mi South 8.1 mph - N/A   Overcast
2:35 AM 50.4 °F 44.4 °F 80% 30.30 in 10.0 mi South 9.2 mph - N/A   Overcast
2:55 AM 50.0 °F 44.6 °F 82% 30.30 in 10.0 mi South 9.2 mph - N/A   Overcast
3:15 AM 50.0 °F 45.1 °F 83% 30.30 in 10.0 mi SSW 8.1 mph - N/A   Overcast
3:35 AM 49.6 °F 45.0 °F 84% 30.30 in 10.0 mi South 6.9 mph - N/A   Overcast
3:55 AM 49.5 °F 47.1 °F 92% 30.29 in 10.0 mi South 9.2 mph - N/A   Overcast
4:15 AM 49.1 °F 47.3 °F 93% 30.29 in 10.0 mi South 10.4 mph - N/A   Overcast
4:35 AM 48.2 °F 47.3 °F 97% 30.29 in 5.0 mi South 6.9 mph - N/A   Overcast
4:55 AM 48.2 °F 47.5 °F 97% 30.28 in 5.0 mi South 8.1 mph - N/A   Overcast
5:15 AM 47.8 °F 47.3 °F 98% 30.29 in 7.0 mi SSE 6.9 mph - N/A   Overcast
5:35 AM 48.2 °F 47.5 °F 97% 30.29 in 7.0 mi SSE 4.6 mph - N/A   Overcast
5:55 AM 48.2 °F 47.7 °F 98% 30.28 in 10.0 mi South 5.8 mph - N/A   Overcast
6:15 AM 48.4 °F 47.7 °F 97% 30.28 in 10.0 mi South 5.8 mph - N/A   Overcast
6:35 AM 48.6 °F 47.8 °F 97% 30.28 in 10.0 mi SSW 4.6 mph - N/A   Overcast
6:55 AM 48.7 °F 48.0 °F 97% 30.28 in 10.0 mi South 3.5 mph - N/A   Overcast
7:15 AM 48.9 °F 47.8 °F 96% 30.28 in 10.0 mi South 4.6 mph - N/A   Overcast
7:35 AM 49.1 °F 47.8 °F 95% 30.28 in 10.0 mi South 4.6 mph - N/A   Overcast
7:55 AM 49.3 °F 48.2 °F 96% 30.29 in 10.0 mi South 5.8 mph - N/A   Overcast
8:15 AM 49.6 °F 48.2 °F 95% 30.29 in 10.0 mi SSE 4.6 mph - N/A   Overcast
8:35 AM 50.0 °F 48.2 °F 94% 30.29 in 10.0 mi South 6.9 mph - N/A   Overcast
8:55 AM 50.2 °F 48.0 °F 92% 30.29 in 10.0 mi South 4.6 mph - N/A   Overcast
9:15 AM 50.5 °F 48.2 °F 92% 30.29 in 10.0 mi South 6.9 mph - N/A   Overcast
9:35 AM 51.3 °F 48.6 °F 90% 30.29 in 10.0 mi South 8.1 mph - N/A   Overcast
9:55 AM 51.8 °F 48.9 °F 90% 30.29 in 10.0 mi South 6.9 mph - N/A   Overcast
10:15 AM 52.0 °F 48.9 °F 89% 30.29 in 10.0 mi South 6.9 mph - N/A   Overcast
10:35 AM 55.4 °F 49.5 °F 80% 30.30 in 10.0 mi SSW 6.9 mph - N/A   Overcast
10:55 AM 55.4 °F 48.4 °F 77% 30.29 in 10.0 mi South 9.2 mph - N/A   Overcast
11:15 AM 58.3 °F 48.6 °F 70% 30.29 in 10.0 mi South 10.4 mph - N/A   Overcast
11:35 AM 55.9 °F 47.3 °F 73% 30.28 in 10.0 mi SSW 10.4 mph - N/A   Overcast
11:55 AM 57.4 °F 47.7 °F 70% 30.27 in 10.0 mi SSW 10.4 mph - N/A   Mostly Cloudy
12:15 PM 60.4 °F 46.6 °F 60% 30.26 in 10.0 mi South 8.1 mph 16.1 mph N/A   Scattered Clouds
12:35 PM 59.4 °F 46.9 °F 63% 30.26 in 10.0 mi South 9.2 mph 16.1 mph N/A   Scattered Clouds
12:55 PM 60.3 °F 47.3 °F 62% 30.26 in 10.0 mi SW 6.9 mph - N/A   Mostly Cloudy
1:15 PM 61.9 °F 47.5 °F 59% 30.25 in 10.0 mi SSW 5.8 mph - N/A   Mostly Cloudy
1:35 PM 63.3 °F 46.9 °F 55% 30.25 in 10.0 mi West 8.1 mph - N/A   Scattered Clouds
1:55 PM 63.7 °F 47.8 °F 56% 30.24 in 10.0 mi South 8.1 mph - N/A   Scattered Clouds
2:15 PM 63.5 °F 47.3 °F 56% 30.23 in 10.0 mi South 8.1 mph 18.4 mph N/A   Scattered Clouds
2:35 PM 64.9 °F 47.7 °F 54% 30.23 in 10.0 mi South 10.4 mph - N/A   Scattered Clouds
2:55 PM 64.8 °F 47.7 °F 54% 30.22 in 10.0 mi SSW 8.1 mph - N/A   Scattered Clouds
3:15 PM 64.9 °F 48.2 °F 55% 30.22 in 10.0 mi South 11.5 mph - N/A   Scattered Clouds
3:35 PM 64.4 °F 47.7 °F 55% 30.21 in 10.0 mi South 6.9 mph 16.1 mph N/A   Scattered Clouds
3:55 PM 64.6 °F 47.5 °F 54% 30.20 in 10.0 mi South 9.2 mph - N/A   Clear
4:15 PM 64.9 °F 47.1 °F 52% 30.20 in 10.0 mi South 8.1 mph - N/A   Clear
4:35 PM 64.9 °F 46.8 °F 52% 30.20 in 10.0 mi South 8.1 mph - N/A   Clear
4:55 PM 64.6 °F 46.9 °F 53% 30.20 in 10.0 mi South 9.2 mph - N/A   Clear
5:15 PM 64.4 °F 46.8 °F 53% 30.20 in 10.0 mi SSE 8.1 mph - N/A   Clear
5:35 PM 63.7 °F 46.8 °F 54% 30.20 in 10.0 mi South 9.2 mph - N/A   Clear
5:55 PM 63.1 °F 46.8 °F 55% 30.20 in 10.0 mi South 9.2 mph - N/A   Clear
6:15 PM 61.7 °F 47.1 °F 59% 30.20 in 10.0 mi SSE 5.8 mph - N/A   Clear
6:35 PM 59.4 °F 47.5 °F 65% 30.20 in 10.0 mi SSE 5.8 mph - N/A   Clear
6:55 PM 56.5 °F 47.8 °F 73% 30.20 in 10.0 mi South 4.6 mph - N/A   Clear
7:15 PM 55.6 °F 47.5 °F 74% 30.20 in 10.0 mi SSE 4.6 mph - N/A   Clear
7:35 PM 55.0 °F 47.3 °F 75% 30.20 in 10.0 mi South 4.6 mph - N/A   Clear
7:55 PM 54.5 °F 47.3 °F 77% 30.21 in 10.0 mi South 4.6 mph - N/A   Clear
8:15 PM 53.6 °F 47.3 °F 79% 30.22 in 10.0 mi South 4.6 mph - N/A   Clear
8:35 PM 53.2 °F 46.6 °F 78% 30.22 in 10.0 mi SSE 4.6 mph - N/A   Clear
8:55 PM 52.7 °F 46.4 °F 79% 30.22 in 10.0 mi SSE 4.6 mph - N/A   Clear
9:15 PM 52.3 °F 45.9 °F 79% 30.22 in 10.0 mi SSE 6.9 mph - N/A   Clear
9:35 PM 51.4 °F 45.9 °F 81% 30.22 in 10.0 mi SSE 5.8 mph - N/A   Clear
9:55 PM 51.1 °F 45.9 °F 82% 30.22 in 10.0 mi SSE 5.8 mph - N/A   Clear
10:15 PM 50.9 °F 46.6 °F 85% 30.22 in 10.0 mi South 3.5 mph - N/A   Clear
10:35 PM 50.9 °F 46.8 °F 86% 30.23 in 10.0 mi South 4.6 mph - N/A   Clear
10:55 PM 51.1 °F 47.8 °F 89% 30.23 in 10.0 mi SSW 4.6 mph - N/A   Clear
11:15 PM 50.4 °F 47.7 °F 90% 30.23 in 10.0 mi WNW 5.8 mph - N/A   Clear
11:35 PM 50.7 °F 47.8 °F 90% 30.23 in 10.0 mi West 4.6 mph - N/A   Clear
11:55 PM 50.7 °F 48.0 °F 90% 30.22 in 10.0 mi WSW 3.5 mph - N/A   Clear